NI4CE-14 Weather Reports


Display with metric or nautical units.
time (UTC)temp
F
wind
direction
speed
MPH
gust
MPH
rain 1hr
in
rain 24hr
in
rain mn
in
humidity
%
barometer
mb
20260906231350 91 350 1.0 8.0 0.00 0.00 0.00 100 1008.7
20260906231256 92 357 0.0 1.0 0.00 0.00 0.00 100 1008.7
20260906230850 92 357 0.0 1.0 0.00 0.00 0.00 100 1008.7
20260906230633 92 45 0.0 4.0 0.00 0.00 0.00 100 1008.6
20260906230350 92 45 0.0 4.0 0.00 0.00 0.00 100 1008.6
20260906225851 92 312 3.0 4.0 0.00 0.00 0.00 100 1008.6
20260906225350 92 244 0.0 5.0 0.00 0.00 0.00 100 1008.6
20260906224850 92 357 1.0 7.0 0.00 0.00 0.00 100 1008.4
20260906224350 92 358 6.0 8.0 0.00 0.00 0.00 100 1008.4
20260906223850 92 303 0.0 6.0 0.00 0.00 0.00 100 1008.4
20260906223351 92 352 5.0 5.0 0.00 0.00 0.00 100 1008.4
20260906223155 92 293 2.0 3.0 0.00 0.00 0.00 100 1008.4
20260906222851 92 293 2.0 3.0 0.00 0.00 0.00 100 1008.4
20260906222350 92 303 1.0 6.0 0.00 0.00 0.00 100 1008.6
20260906221851 92 288 2.0 6.0 0.00 0.00 0.00 100 1008.5
20260906221734 93 174 1.0 8.0 0.00 0.00 0.00 100 1008.6
20260906221351 93 174 1.0 8.0 0.00 0.00 0.00 100 1008.6
20260906220851 93 274 0.0 8.0 0.00 0.00 0.00 100 1008.7
20260906220351 93 298 1.0 7.0 0.00 0.00 0.00 100 1008.6
20260906220248 93 305 2.0 7.0 0.00 0.00 0.00 100 1008.7
20260906215851 93 305 2.0 7.0 0.00 0.00 0.00 100 1008.7
20260906215351 93 334 5.0 10.0 0.00 0.00 0.00 100 1008.7
20260906214851 93 334 3.0 9.0 0.00 0.00 0.00 100 1008.7
20260906214351 93 265 4.0 9.0 0.00 0.00 0.00 100 1008.8
20260906213851 93 358 6.0 9.0 0.00 0.00 0.00 100 1008.5
20260906213758 93 354 4.0 6.0 0.00 0.00 0.00 100 1008.9
20260906213351 93 354 4.0 6.0 0.00 0.00 0.00 100 1008.9
20260906212851 93 5 0.0 5.0 0.00 0.00 0.00 100 1008.9
20260906212351 93 345 2.0 11.0 0.00 0.00 0.00 100 1008.6
20260906211851 93 340 10.0 10.0 0.00 0.00 0.00 100 1008.9
20260906211730 93 244 0.0 5.0 0.00 0.00 0.00 100 1009.1
20260906211351 93 244 0.0 5.0 0.00 0.00 0.00 100 1009.1
20260906210851 93 358 2.0 9.0 0.00 0.00 0.00 100 1009.1
20260906210351 93 22 3.0 10.0 0.00 0.00 0.00 100 1009.0
20260906205851 94 18 3.0 9.0 0.00 0.00 0.00 100 1009.0
20260906205447 93 264 2.0 12.0 0.00 0.00 0.00 100 1009.2
20260906205351 93 285 1.0 6.0 0.00 0.00 0.00 100 1009.1
20260906204851 93 264 2.0 12.0 0.00 0.00 0.00 100 1009.2
20260906204758 93 14 2.0 12.0 0.00 0.00 0.00 100 1009.3
20260906204351 93 14 2.0 12.0 0.00 0.00 0.00 100 1009.3
20260906204327 93 333 9.0 11.0 0.00 0.00 0.00 100 1009.2
20260906203851 93 333 9.0 11.0 0.00 0.00 0.00 100 1009.2
20260906203351 93 15 9.0 11.0 0.00 0.00 0.00 100 1009.2
20260906202851 94 352 2.0 9.0 0.00 0.00 0.00 100 1009.2
20260906202351 93 271 0.0 8.0 0.00 0.00 0.00 100 1009.3
20260906201851 93 327 8.0 12.0 0.00 0.00 0.00 100 1009.4
20260906201351 93 2 9.0 13.0 0.00 0.00 0.00 100 1009.4
20260906201319 94 33 0.0 7.0 0.00 0.00 0.00 100 1009.5
20260906200851 94 33 0.0 7.0 0.00 0.00 0.00 100 1009.5
20260906200800 93 358 3.0 14.0 0.00 0.00 0.00 100 1009.5
20260906200351 93 358 3.0 14.0 0.00 0.00 0.00 100 1009.5
20260906195851 93 331 4.0 11.0 0.00 0.00 0.00 100 1009.5
20260906195351 93 306 2.0 9.0 0.00 0.00 0.00 100 1009.7
20260906194851 93 345 4.0 11.0 0.00 0.00 0.00 100 1009.8
20260906194721 94 352 6.0 8.0 0.00 0.00 0.00 100 1009.8
20260906194351 94 352 6.0 8.0 0.00 0.00 0.00 100 1009.8
20260906193851 94 319 5.0 12.0 0.00 0.00 0.00 100 1010.0
20260906193755 94 357 7.0 9.0 0.00 0.00 0.00 100 1010.1
20260906193351 94 357 7.0 9.0 0.00 0.00 0.00 100 1010.1
20260906193237 93 1 7.0 9.0 0.00 0.00 0.00 100 1010.2
20260906192851 93 1 7.0 9.0 0.00 0.00 0.00 100 1010.2
20260906192351 93 274 0.0 10.0 0.00 0.00 0.00 100 1010.2
20260906191851 93 358 4.0 12.0 0.00 0.00 0.00 100 1010.3
20260906191653 93 310 5.0 8.0 0.00 0.00 0.00 100 1010.3
20260906191351 93 310 5.0 8.0 0.00 0.00 0.00 100 1010.3
20260906191325 93 358 5.0 10.0 0.00 0.00 0.00 100 1010.5
20260906190851 93 358 5.0 10.0 0.00 0.00 0.00 100 1010.5
20260906190351 92 350 8.0 13.0 0.00 0.00 0.00 100 1010.4
20260906185851 92 279 4.0 13.0 0.00 0.00 0.00 100 1010.4
20260906185351 92 317 11.0 13.0 0.00 0.00 0.00 100 1010.4
20260906184851 92 29 7.0 12.0 0.00 0.00 0.00 100 1010.4
20260906184713 92 16 8.0 11.0 0.00 0.00 0.00 100 1010.4
20260906184351 92 16 8.0 11.0 0.00 0.00 0.00 100 1010.4
20260906184203 92 5 8.0 11.0 0.00 0.00 0.00 100 1010.4
20260906183851 92 5 8.0 11.0 0.00 0.00 0.00 100 1010.4
20260906183351 92 25 1.0 10.0 0.00 0.00 0.00 100 1010.5
20260906182851 92 23 7.0 11.0 0.00 0.00 0.00 100 1010.6
20260906182601 92 0 6.0 9.0 0.00 0.00 0.00 100 1010.5
20260906182351 92 0 6.0 9.0 0.00 0.00 0.00 100 1010.5
20260906181851 92 354 6.0 11.0 0.00 0.00 0.00 100 1010.6
20260906181727 92 344 3.0 13.0 0.00 0.00 0.00 100 1010.7
20260906181351 92 344 3.0 13.0 0.00 0.00 0.00 100 1010.7
20260906180851 92 22 5.0 11.0 0.00 0.00 0.00 100 1010.7
20260906180351 92 352 9.0 14.0 0.00 0.00 0.00 100 1010.7
20260906180237 92 358 5.0 13.0 0.00 0.00 0.00 100 1010.6
20260906175851 92 358 5.0 13.0 0.00 0.00 0.00 100 1010.6
20260906175719 92 298 2.0 10.0 0.00 0.00 0.00 100 1010.7
20260906175351 92 298 2.0 10.0 0.00 0.00 0.00 100 1010.7
20260906175116 92 329 7.0 11.0 0.00 0.00 0.00 100 1010.8
20260906174851 92 329 7.0 11.0 0.00 0.00 0.00 100 1010.8
20260906174713 92 334 7.0 11.0 0.00 0.00 0.00 100 1010.9
20260906174351 92 334 7.0 11.0 0.00 0.00 0.00 100 1010.9
20260906173851 92 358 8.0 11.0 0.00 0.00 0.00 100 1010.8
20260906173705 92 35 8.0 10.0 0.00 0.00 0.00 100 1010.2
20260906173351 92 35 8.0 10.0 0.00 0.00 0.00 100 1010.2
20260906172851 92 175 1.0 10.0 0.00 0.00 0.00 100 1011.0
20260906172713 92 338 8.0 10.0 0.00 0.00 0.00 100 1010.9
20260906172351 92 338 8.0 10.0 0.00 0.00 0.00 100 1010.9
20260906171851 92 281 1.0 10.0 0.00 0.00 0.00 100 1010.9
20260906171716 92 28 2.0 8.0 0.00 0.00 0.00 100 1010.9
20260906171351 92 28 2.0 8.0 0.00 0.00 0.00 100 1010.9
20260906170851 92 315 3.0 10.0 0.00 0.00 0.00 100 1010.9
20260906170713 92 4 8.0 11.0 0.00 0.00 0.00 100 1010.9
20260906170351 92 4 8.0 11.0 0.00 0.00 0.00 100 1010.9
20260906165851 92 14 3.0 11.0 0.00 0.00 0.00 100 1011.1
20260906165351 91 350 7.0 11.0 0.00 0.00 0.00 100 1011.1
20260906165139 91 341 4.0 13.0 0.00 0.00 0.00 100 1011.0
20260906164851 91 341 4.0 13.0 0.00 0.00 0.00 100 1011.0
20260906164808 91 9 6.0 11.0 0.00 0.00 0.00 100 1011.3
20260906164351 91 9 6.0 11.0 0.00 0.00 0.00 100 1011.3
20260906164257 91 358 8.0 13.0 0.00 0.00 0.00 100 1011.4
20260906163851 91 358 8.0 13.0 0.00 0.00 0.00 100 1011.4
20260906163731 92 337 9.0 10.0 0.00 0.00 0.00 100 1011.4
20260906163351 92 337 9.0 10.0 0.00 0.00 0.00 100 1011.4
20260906163242 91 358 7.0 11.0 0.00 0.00 0.00 100 1011.7
20260906162851 91 358 7.0 11.0 0.00 0.00 0.00 100 1011.7
20260906162714 91 350 8.0 13.0 0.00 0.00 0.00 100 1011.8
20260906162351 91 350 8.0 13.0 0.00 0.00 0.00 100 1011.8
20260906162121 92 25 6.0 12.0 0.00 0.00 0.00 100 1011.4
20260906161851 92 25 6.0 12.0 0.00 0.00 0.00 100 1011.4
20260906161719 92 28 5.0 12.0 0.00 0.00 0.00 100 1011.8
20260906161351 92 28 5.0 12.0 0.00 0.00 0.00 100 1011.8
20260906160851 92 347 5.0 9.0 0.00 0.00 0.00 100 1011.4
20260906160714 92 317 4.0 11.0 0.00 0.00 0.00 100 1012.0
20260906160351 92 317 4.0 11.0 0.00 0.00 0.00 100 1012.0
20260906160225 92 330 10.0 10.0 0.00 0.00 0.00 100 1011.9
20260906155851 92 330 10.0 10.0 0.00 0.00 0.00 100 1011.9
20260906155351 92 331 6.0 6.0 0.00 0.00 0.00 100 1011.8
20260906155157 92 261 0.0 5.0 0.00 0.00 0.00 100 1011.9
20260906154851 92 261 0.0 5.0 0.00 0.00 0.00 100 1011.9
20260906154351 91 352 3.0 7.0 0.00 0.00 0.00 100 1012.0
20260906153852 91 32 3.0 6.0 0.00 0.00 0.00 100 1012.0
20260906153701 90 333 1.0 7.0 0.00 0.00 0.00 100 1011.9
20260906153351 90 333 1.0 7.0 0.00 0.00 0.00 100 1011.9
20260906152851 90 329 4.0 8.0 0.00 0.00 0.00 100 1012.0
20260906152351 90 358 6.0 9.0 0.00 0.00 0.00 100 1012.0
20260906152129 90 28 4.0 9.0 0.00 0.00 0.00 100 1012.0
20260906151851 90 28 4.0 9.0 0.00 0.00 0.00 100 1012.0
20260906151351 91 296 1.0 10.0 0.00 0.00 0.00 100 1011.9
20260906150851 90 337 7.0 15.0 0.00 0.00 0.00 100 1011.8
20260906150717 90 330 11.0 15.0 0.00 0.00 0.00 100 1012.0
20260906150351 90 330 11.0 15.0 0.00 0.00 0.00 100 1012.0
20260906150104 90 334 8.0 17.0 0.00 0.00 0.00 100 1012.1
20260906145851 90 334 8.0 17.0 0.00 0.00 0.00 100 1012.1
20260906145648 91 352 9.0 15.0 0.00 0.00 0.00 100 1012.2
20260906145352 91 352 9.0 15.0 0.00 0.00 0.00 100 1012.2
20260906145204 92 327 9.0 9.0 0.00 0.00 0.00 100 1011.9
20260906144851 92 327 9.0 9.0 0.00 0.00 0.00 100 1011.9
20260906144351 92 8 6.0 12.0 0.00 0.00 0.00 100 1012.0
20260906144239 92 5 4.0 9.0 0.00 0.00 0.00 100 1012.1
20260906143851 92 5 4.0 9.0 0.00 0.00 0.00 100 1012.1
20260906143351 91 357 5.0 9.0 0.00 0.00 0.00 100 1012.0
20260906143235 91 0 4.0 10.0 0.00 0.00 0.00 100 1011.9
20260906142851 91 0 4.0 10.0 0.00 0.00 0.00 100 1011.9
20260906142639 91 358 7.0 7.0 0.00 0.00 0.00 100 1011.8
20260906142352 91 358 7.0 7.0 0.00 0.00 0.00 100 1011.8
20260906142202 92 33 4.0 8.0 0.00 0.00 0.00 100 1011.8
20260906141851 92 33 4.0 8.0 0.00 0.00 0.00 100 1011.8
20260906141714 92 9 6.0 9.0 0.00 0.00 0.00 100 1011.7
20260906141351 92 9 6.0 9.0 0.00 0.00 0.00 100 1011.7
20260906141025 91 358 5.0 7.0 0.00 0.00 0.00 100 1011.8
20260906140851 92 300 1.0 5.0 0.00 0.00 0.00 100 1011.7
20260906140351 91 358 5.0 7.0 0.00 0.00 0.00 100 1011.8
20260906135851 91 2 4.0 7.0 0.00 0.00 0.00 100 1011.7
20260906135413 91 357 5.0 9.0 0.00 0.00 0.00 100 1011.9
20260906135351 91 347 0.0 6.0 0.00 0.00 0.00 100 1011.6
20260906134851 91 357 5.0 9.0 0.00 0.00 0.00 100 1011.9
20260906134352 91 196 0.0 7.0 0.00 0.00 0.00 100 1011.1
20260906133851 91 347 3.0 5.0 0.00 0.00 0.00 100 1011.9
20260906133351 90 358 4.0 5.0 0.00 0.00 0.00 100 1011.9
20260906132851 90 8 4.0 6.0 0.00 0.00 0.00 100 1011.9
20260906132351 89 33 3.0 7.0 0.00 0.00 0.00 100 1011.8
20260906131851 88 344 4.0 5.0 0.00 0.00 0.00 100 1011.8
20260906131611 88 180 0.0 0.0 0.00 0.00 0.00 100 1011.7
20260906131351 88 180 0.0 0.0 0.00 0.00 0.00 100 1011.7
20260906130851 87 180 0.0 0.0 0.00 0.00 0.00 100 1011.8
20260906130352 87 180 0.0 0.0 0.00 0.00 0.00 100 1011.8
20260906130146 88 180 0.0 0.0 0.00 0.00 0.00 100 1011.7
20260906125851 88 180 0.0 0.0 0.00 0.00 0.00 100 1011.7
20260906125615 87 180 0.0 0.0 0.00 0.00 0.00 100 1011.7
20260906125351 87 180 0.0 0.0 0.00 0.00 0.00 100 1011.7
20260906125112 87 180 0.0 0.0 0.00 0.00 0.00 100 1011.6
20260906124851 87 180 0.0 0.0 0.00 0.00 0.00 100 1011.6
20260906124351 87 180 0.0 0.0 0.00 0.00 0.00 100 1011.7
20260906124217 87 180 0.0 0.0 0.00 0.00 0.00 100 1011.7
20260906123851 87 180 0.0 0.0 0.00 0.00 0.00 100 1011.7
20260906123351 87 180 0.0 0.0 0.00 0.00 0.00 100 1011.7
20260906122851 86 180 0.0 0.0 0.00 0.00 0.00 100 1011.6
20260906122351 86 180 0.0 0.0 0.00 0.00 0.00 100 1011.6
20260906121851 86 180 0.0 0.0 0.00 0.00 0.00 100 1011.5
20260906121653 86 180 0.0 0.0 0.00 0.00 0.00 100 1011.5
20260906121351 86 180 0.0 0.0 0.00 0.00 0.00 100 1011.5
20260906120851 85 180 0.0 0.0 0.00 0.00 0.00 100 1011.5
20260906120351 85 180 0.0 0.0 0.00 0.00 0.00 100 1011.4
20260906115851 85 180 0.0 0.0 0.00 0.00 0.00 100 1011.2
20260906115351 85 180 0.0 0.0 0.00 0.00 0.00 100 1011.1
20260906115123 85 180 0.0 0.0 0.00 0.00 0.00 100 1011.1
20260906114851 85 180 0.0 0.0 0.00 0.00 0.00 100 1011.1
20260906114713 85 180 0.0 0.0 0.00 0.00 0.00 100 1011.1
20260906114351 85 180 0.0 0.0 0.00 0.00 0.00 100 1011.1
20260906113852 85 180 0.0 0.0 0.00 0.00 0.00 100 1011.0
20260906113352 85 180 0.0 0.0 0.00 0.00 0.00 100 1011.0
20260906112851 84 180 0.0 0.0 0.00 0.00 0.00 100 1011.0
20260906112352 85 180 0.0 0.0 0.00 0.00 0.00 100 1010.9
20260906111851 85 180 0.0 0.0 0.00 0.00 0.00 100 1010.8
20260906111723 84 180 0.0 0.0 0.00 0.00 0.00 100 1010.8
20260906111352 84 180 0.0 0.0 0.00 0.00 0.00 100 1010.8
20260906110852 85 180 0.0 0.0 0.00 0.00 0.00 100 1010.8
20260906110609 85 180 0.0 1.0 0.00 0.00 0.00 100 1010.8
20260906110352 85 180 0.0 1.0 0.00 0.00 0.00 100 1010.8
20260906110109 85 180 0.0 7.0 0.00 0.00 0.00 100 1010.8
20260906105851 85 180 0.0 7.0 0.00 0.00 0.00 100 1010.8
20260906105352 85 203 0.0 7.0 0.00 0.00 0.00 100 1010.8
20260906104852 86 198 2.0 6.0 0.00 0.00 0.00 100 1010.9
20260906104352 87 227 0.0 8.0 0.00 0.00 0.00 100 1010.8
20260906104115 88 291 0.0 4.0 0.00 0.00 0.00 100 1010.7
20260906103852 88 291 0.0 4.0 0.00 0.00 0.00 100 1010.7
20260906103352 88 227 0.0 6.0 0.00 0.00 0.00 100 1010.5
20260906103217 88 322 0.0 0.0 0.00 0.00 0.00 100 1010.4
20260906102852 88 322 0.0 0.0 0.00 0.00 0.00 100 1010.4
20260906102352 88 322 0.0 0.0 0.00 0.00 0.00 100 1010.2
20260906102145 88 322 0.0 0.0 0.00 0.00 0.00 100 1010.2
20260906101852 88 322 0.0 0.0 0.00 0.00 0.00 100 1010.2
20260906101352 88 322 0.0 0.0 0.00 0.00 0.00 100 1010.0
20260906100852 88 322 0.0 0.0 0.00 0.00 0.00 100 1010.0
20260906100352 88 322 0.0 0.0 0.00 0.00 0.00 100 1010.0
20260906095852 88 322 0.0 0.0 0.00 0.00 0.00 100 1010.0
20260906095352 88 322 0.0 0.0 0.00 0.00 0.00 100 1010.0
20260906095116 88 322 0.0 0.0 0.00 0.00 0.00 100 1009.9
20260906095027 95 7 3.0 8.0 0.00 0.00 0.00 100 1012.5
20260906095023 95 302 3.0 7.0 0.00 0.00 0.00 100 1012.6
20260906094852 88 322 0.0 0.0 0.00 0.00 0.00 100 1009.9
20260906094352 88 322 0.0 0.0 0.00 0.00 0.00 100 1009.8
20260906093852 88 322 0.0 0.0 0.00 0.00 0.00 100 1009.8
20260906093352 89 322 0.0 0.0 0.00 0.00 0.00 100 1009.8
20260906093149 88 322 0.0 0.0 0.00 0.00 0.00 100 1009.6
20260906092852 88 322 0.0 0.0 0.00 0.00 0.00 100 1009.6
20260906092620 88 322 0.0 0.0 0.00 0.00 0.00 100 1009.6
20260906092352 88 322 0.0 0.0 0.00 0.00 0.00 100 1009.6
20260906092113 88 322 0.0 1.0 0.00 0.00 0.00 100 1009.6
20260906091852 88 322 0.0 1.0 0.00 0.00 0.00 100 1009.6
20260906091352 88 289 0.0 0.0 0.00 0.00 0.00 100 1009.5
20260906091109 88 289 0.0 1.0 0.00 0.00 0.00 100 1009.4
20260906090852 88 289 0.0 1.0 0.00 0.00 0.00 100 1009.4
20260906090547 88 289 0.0 2.0 0.00 0.00 0.00 100 1009.4
20260906090352 88 289 0.0 2.0 0.00 0.00 0.00 100 1009.4
20260906085852 88 330 0.0 0.0 0.00 0.00 0.00 100 1009.4
20260906085650 88 330 0.0 0.0 0.00 0.00 0.00 100 1009.3
20260906085352 88 330 0.0 0.0 0.00 0.00 0.00 100 1009.3
20260906085132 87 330 0.0 0.0 0.00 0.00 0.00 100 1009.3
20260906084852 87 330 0.0 0.0 0.00 0.00 0.00 100 1009.3
20260906084650 87 330 0.0 0.0 0.00 0.00 0.00 100 1009.3
20260906084352 87 330 0.0 0.0 0.00 0.00 0.00 100 1009.3
20260906083852 87 330 0.0 0.0 0.00 0.00 0.00 100 1009.3
20260906083612 87 330 0.0 0.0 0.00 0.00 0.00 100 1009.3
20260906083352 87 330 0.0 0.0 0.00 0.00 0.00 100 1009.3
20260906082852 87 330 0.0 0.0 0.00 0.00 0.00 100 1009.4
20260906082631 87 330 0.0 0.0 0.00 0.00 0.00 100 1009.4
20260906082352 87 330 0.0 0.0 0.00 0.00 0.00 100 1009.4
20260906082118 87 330 0.0 0.0 0.00 0.00 0.00 100 1009.3
20260906081852 87 330 0.0 0.0 0.00 0.00 0.00 100 1009.3
20260906081352 87 330 0.0 0.0 0.00 0.00 0.00 100 1009.3
20260906080852 87 330 0.0 0.0 0.00 0.00 0.00 100 1009.1
20260906080352 87 330 0.0 0.0 0.00 0.00 0.00 100 1009.2
20260906080051 87 330 0.0 0.0 0.00 0.00 0.00 100 1009.3
20260906075852 87 330 0.0 0.0 0.00 0.00 0.00 100 1009.3
20260906075550 87 330 0.0 0.0 0.00 0.00 0.00 100 1009.3
20260906075352 87 330 0.0 0.0 0.00 0.00 0.00 100 1009.3
20260906074852 87 330 0.0 0.0 0.00 0.00 0.00 100 1009.3
20260906074559 87 330 0.0 0.0 0.00 0.00 0.00 100 1009.4
20260906074352 87 330 0.0 0.0 0.00 0.00 0.00 100 1009.4
20260906073852 87 330 0.0 0.0 0.00 0.00 0.00 100 1009.4
20260906073637 87 330 0.0 0.0 0.00 0.00 0.00 100 1009.4
20260906073352 87 330 0.0 0.0 0.00 0.00 0.00 100 1009.4
20260906073040 87 330 0.0 0.0 0.00 0.00 0.00 100 1009.4
20260906072926 87 330 0.0 0.0 0.00 0.00 0.00 100 1009.4
20260906072852 87 330 0.0 0.0 0.00 0.00 0.00 100 1009.4
20260906072352 87 330 0.0 0.0 0.00 0.00 0.00 100 1009.5
20260906071852 87 330 0.0 0.0 0.00 0.00 0.00 100 1009.6
20260906071352 87 330 0.0 0.0 0.00 0.00 0.00 100 1009.6
20260906070852 87 330 0.0 0.0 0.00 0.00 0.00 100 1009.6
20260906070622 87 330 0.0 0.0 0.00 0.00 0.00 100 1009.7
20260906070352 87 330 0.0 0.0 0.00 0.00 0.00 100 1009.7
20260906070056 87 330 0.0 0.0 0.00 0.00 0.00 100 1009.7
20260906065852 87 330 0.0 0.0 0.00 0.00 0.00 100 1009.7
20260906065352 87 330 0.0 0.0 0.00 0.00 0.00 100 1009.7
20260906064852 87 330 0.0 0.0 0.00 0.00 0.00 100 1009.8
20260906064624 87 330 0.0 0.0 0.00 0.00 0.00 100 1010.0
20260906064352 87 330 0.0 0.0 0.00 0.00 0.00 100 1010.0
20260906063852 87 330 0.0 0.0 0.00 0.00 0.00 100 1010.0
20260906063352 87 330 0.0 0.0 0.00 0.00 0.00 100 1010.2
20260906062852 88 330 0.0 0.0 0.00 0.00 0.00 100 1010.3
20260906062610 88 330 0.0 0.0 0.00 0.00 0.00 100 1010.4
20260906062352 88 330 0.0 0.0 0.00 0.00 0.00 100 1010.4
20260906061852 88 330 0.0 0.0 0.00 0.00 0.00 100 1010.6
20260906061615 87 330 0.0 0.0 0.00 0.00 0.00 100 1010.7
20260906061352 87 330 0.0 0.0 0.00 0.00 0.00 100 1010.7
20260906060852 87 330 0.0 0.0 0.00 0.00 0.00 100 1010.8
20260906060623 87 330 0.0 0.0 0.00 0.00 0.00 100 1010.7
20260906060352 87 330 0.0 0.0 0.00 0.00 0.00 100 1010.7
20260906060046 87 330 0.0 0.0 0.00 0.00 0.00 100 1010.8
20260906055852 87 330 0.0 0.0 0.00 0.00 0.00 100 1010.8
20260906055352 88 330 0.0 0.0 0.00 0.00 0.00 100 1010.9
20260906055050 88 330 0.0 0.0 0.00 0.00 0.00 100 1010.9
20260906054852 88 330 0.0 0.0 0.00 0.00 0.00 100 1010.9
20260906054614 88 330 0.0 0.0 0.00 0.00 0.00 100 1011.0
20260906054352 88 330 0.0 0.0 0.00 0.00 0.00 100 1011.0
20260906053852 88 330 0.0 0.0 0.00 0.00 0.00 100 1010.9
20260906053534 88 330 0.0 0.0 0.00 0.00 0.00 100 1011.0
20260906053352 88 330 0.0 0.0 0.00 0.00 0.00 100 1011.0
20260906052852 88 330 0.0 0.0 0.00 0.00 0.00 100 1011.1
20260906052352 88 330 0.0 0.0 0.00 0.00 0.00 100 1011.3
20260906051852 88 330 0.0 0.0 0.00 0.00 0.00 100 1011.3
20260906051524 88 330 0.0 0.0 0.00 0.00 0.00 100 1011.3
20260906051352 88 330 0.0 0.0 0.00 0.00 0.00 100 1011.3
20260906050852 88 330 0.0 0.0 0.00 0.00 0.00 100 1011.2
20260906050543 88 330 0.0 0.0 0.00 0.00 0.00 100 1011.3
20260906050352 88 330 0.0 0.0 0.00 0.00 0.00 100 1011.3
20260906045852 88 330 0.0 0.0 0.00 0.00 0.00 100 1011.3
20260906045557 88 330 0.0 0.0 0.00 0.00 0.00 100 1011.4
20260906045352 88 330 0.0 0.0 0.00 0.00 0.00 100 1011.4
20260906044852 88 330 0.0 0.0 0.00 0.00 0.00 100 1011.4
20260906044352 88 330 0.0 0.0 0.00 0.00 0.00 100 1011.4
20260906043852 88 330 0.0 0.0 0.00 0.00 0.00 100 1011.4
20260906043603 88 330 0.0 0.0 0.00 0.00 0.00 100 1011.1
20260906043352 88 330 0.0 0.0 0.00 0.00 0.00 100 1011.1
20260906042852 88 330 0.0 0.0 0.00 0.00 0.00 100 1011.3
20260906042524 88 330 0.0 0.0 0.00 0.00 0.00 100 1011.4
20260906042352 88 330 0.0 0.0 0.00 0.00 0.00 100 1011.4
20260906041852 88 330 0.0 0.0 0.00 0.00 0.00 100 1011.5
20260906041647 88 330 0.0 0.0 0.00 0.00 0.00 100 1011.5
20260906041352 88 330 0.0 0.0 0.00 0.00 0.00 100 1011.5
20260906040852 88 330 0.0 0.0 0.00 0.00 0.00 100 1011.4
20260906040634 88 330 0.0 0.0 0.00 0.00 0.00 100 1011.4
20260906040352 88 330 0.0 0.0 0.00 0.00 0.00 100 1011.4
20260906035852 88 330 0.0 0.0 0.00 0.00 0.00 100 1011.4
20260906035352 88 330 0.0 0.0 0.00 0.00 0.00 100 1011.5
20260906035137 88 330 0.0 0.0 0.00 0.00 0.00 100 1011.6
20260906034852 88 330 0.0 0.0 0.00 0.00 0.00 100 1011.6
20260906034548 89 330 0.0 0.0 0.00 0.00 0.00 100 1011.5
20260906034352 89 330 0.0 0.0 0.00 0.00 0.00 100 1011.5
20260906034109 89 330 0.0 0.0 0.00 0.00 0.00 100 1011.5
20260906033852 89 330 0.0 0.0 0.00 0.00 0.00 100 1011.5
20260906033612 89 330 0.0 0.0 0.00 0.00 0.00 100 1011.4
20260906033352 89 330 0.0 0.0 0.00 0.00 0.00 100 1011.4
20260906033053 89 330 0.0 0.0 0.00 0.00 0.00 100 1011.4
20260906032852 89 330 0.0 0.0 0.00 0.00 0.00 100 1011.4
20260906032352 89 330 0.0 0.0 0.00 0.00 0.00 100 1011.4
20260906032017 89 330 0.0 0.0 0.00 0.00 0.00 100 1011.3
20260906031852 89 330 0.0 0.0 0.00 0.00 0.00 100 1011.3
20260906031554 89 330 0.0 0.0 0.00 0.00 0.00 100 1011.3
20260906031352 89 330 0.0 0.0 0.00 0.00 0.00 100 1011.3
20260906031126 89 330 0.0 0.0 0.00 0.00 0.00 100 1011.3
20260906030852 89 330 0.0 0.0 0.00 0.00 0.00 100 1011.3
20260906030352 89 330 0.0 0.0 0.00 0.00 0.00 100 1011.5
20260906030039 89 330 0.0 0.0 0.00 0.00 0.00 100 1011.4
20260906025852 89 330 0.0 0.0 0.00 0.00 0.00 100 1011.4
20260906025552 89 330 0.0 0.0 0.00 0.00 0.00 100 1011.5
20260906025352 89 330 0.0 0.0 0.00 0.00 0.00 100 1011.5
20260906024852 89 330 0.0 0.0 0.00 0.00 0.00 100 1011.5
20260906024352 89 330 0.0 0.0 0.00 0.00 0.00 100 1011.4
20260906023852 89 330 0.0 0.0 0.00 0.00 0.00 100 1011.5
20260906023352 89 330 0.0 0.0 0.00 0.00 0.00 100 1011.4
20260906022852 89 330 0.0 0.0 0.00 0.00 0.00 100 1011.3
20260906022352 89 330 0.0 0.0 0.00 0.00 0.00 100 1011.3
20260906022024 89 330 0.0 0.0 0.00 0.00 0.00 100 1011.3
20260906021852 89 330 0.0 0.0 0.00 0.00 0.00 100 1011.3
20260906021523 90 330 0.0 0.0 0.00 0.00 0.00 100 1011.2
20260906021352 89 330 0.0 0.0 0.00 0.00 0.00 100 1011.3
20260906021104 90 330 0.0 0.0 0.00 0.00 0.00 100 1011.2
20260906020852 90 330 0.0 0.0 0.00 0.00 0.00 100 1011.2
20260906020352 90 330 0.0 0.0 0.00 0.00 0.00 100 1011.2
20260906020037 90 330 0.0 0.0 0.00 0.00 0.00 100 1011.2
20260906015852 90 330 0.0 0.0 0.00 0.00 0.00 100 1011.2
20260906015555 90 330 0.0 0.0 0.00 0.00 0.00 100 1011.3
20260906015352 90 330 0.0 0.0 0.00 0.00 0.00 100 1011.3
20260906014852 90 330 0.0 0.0 0.00 0.00 0.00 100 1011.2
20260906014352 90 330 0.0 0.0 0.00 0.00 0.00 100 1011.1
20260906014146 89 330 0.0 0.0 0.00 0.00 0.00 100 1010.8
20260906013852 89 330 0.0 0.0 0.00 0.00 0.00 100 1010.8
20260906013629 90 330 0.0 0.0 0.00 0.00 0.00 100 1010.5
20260906013352 90 330 0.0 0.0 0.00 0.00 0.00 100 1010.5
20260906012852 90 330 0.0 0.0 0.00 0.00 0.00 100 1010.7
20260906012626 90 330 0.0 0.0 0.00 0.00 0.00 100 1010.7
20260906012352 90 330 0.0 0.0 0.00 0.00 0.00 100 1010.7
20260906011852 90 330 0.0 0.0 0.00 0.00 0.00 100 1010.7
20260906011613 90 330 0.0 0.0 0.00 0.00 0.00 100 1010.7
20260906011352 90 330 0.0 0.0 0.00 0.00 0.00 100 1010.7
20260906011141 90 330 0.0 0.0 0.00 0.00 0.00 100 1010.7
20260906010852 90 330 0.0 0.0 0.00 0.00 0.00 100 1010.7
20260906010352 90 330 0.0 0.0 0.00 0.00 0.00 100 1009.4
20260906010103 90 330 0.0 0.0 0.00 0.00 0.00 100 1009.4
20260906005852 90 330 0.0 0.0 0.00 0.00 0.00 100 1009.4
20260906005550 90 330 0.0 3.0 0.00 0.00 0.00 100 1009.5
20260906005352 90 330 0.0 3.0 0.00 0.00 0.00 100 1009.5
20260906005110 90 331 0.0 3.0 0.00 0.00 0.00 100 1009.4
20260906004852 90 331 0.0 3.0 0.00 0.00 0.00 100 1009.4
20260906004632 90 326 3.0 3.0 0.00 0.00 0.00 100 1009.7
20260906004352 90 326 3.0 3.0 0.00 0.00 0.00 100 1009.7
20260906003852 90 331 0.0 6.0 0.00 0.00 0.00 100 1009.6
20260906003352 90 343 0.0 4.0 0.00 0.00 0.00 100 1010.1
20260906002853 91 358 3.0 4.0 0.00 0.00 0.00 100 1010.1
20260906002353 91 340 3.0 5.0 0.00 0.00 0.00 100 1010.7
20260906001852 90 15 4.0 8.0 0.00 0.00 0.00 100 1010.8
20260906001630 91 350 1.0 1.0 0.00 0.00 0.00 100 1010.7
20260906001352 91 350 1.0 1.0 0.00 0.00 0.00 100 1010.7
20260906001048 91 28 0.0 4.0 0.00 0.00 0.00 100 1010.6
20260906000853 91 28 0.0 4.0 0.00 0.00 0.00 100 1010.6
20260906000355 91 336 2.0 6.0 0.00 0.00 0.00 100 1010.7
20260906000114 91 9 1.0 5.0 0.00 0.00 0.00 100 1010.8
20260905235852 91 9 1.0 5.0 0.00 0.00 0.00 100 1010.8
20260905235353 91 4 2.0 5.0 0.00 0.00 0.00 100 1010.9
20260905234853 91 351 3.0 5.0 0.00 0.00 0.00 100 1010.8
20260905234611 91 23 4.0 5.0 0.00 0.00 0.00 100 1010.9
20260905234353 91 23 4.0 5.0 0.00 0.00 0.00 100 1010.9
20260905233853 91 348 4.0 6.0 0.00 0.00 0.00 100 1010.9
20260905233353 91 350 3.0 8.0 0.00 0.00 0.00 100 1010.9
20260905233115 91 347 5.0 7.0 0.00 0.00 0.00 100 1010.8
20260905232853 91 347 5.0 7.0 0.00 0.00 0.00 100 1010.8
20260905232353 91 14 2.0 7.0 0.00 0.00 0.00 100 1010.5
20260905231853 91 21 3.0 8.0 0.00 0.00 0.00 100 1010.7